Tracking 30970 objects as of 3-Jul-2025
HD Live streaming from Space Station
objects crossing your sky now

FENGYUN 1C DEB

Track FENGYUN 1C DEB now!
10-day predictions


NORAD ID: 41832
Int'l Code: 1999-025EYK
Perigee: 783.8 km
Apogee: 861.5 km
Inclination: 98.7 °
Period: 101.2 minutes
Semi major axis: 7193 km
RCS: Unknown
Launch date: May 10, 1999
Source: People's Republic of China (PRC)
Launch site: Taiyaun Space Center, China (TSC)

Note: This is SATELLITE DEBRIS
Your satellite tracking list
RANGE-A
Track 1 satellite(s)




NASA's NSSDC Master Catalog

Two Line Element Set (TLE):
1 41832U 99025EYK 25182.72643545  .00001966  00000-0  88060-3 0  9994
2 41832  98.7403 247.9277 0054009 343.2207  16.7183 14.22916410450171
Source of the keplerian elements: AFSPC